Content
SEND FEEDBACK

Daily
Averages
Monthly
Summary
United States of America

BELLEVILLE, MICHIGAN


Home > North America > United States > Michigan
Elevation: 780 feet     Latitude: 42 14N     Longitude: 083 32W

WEATHER
 
SELECT A DAY
Number of Records: 202,718;   Date Range: 1/1/95 - 8/28/14
 
SHARE

PRINT THIS DATA

[ ← Previous Day ]
WEATHER ALMANAC - APRIL 27, 2013
[ Next Day → ]
[ °C ]   °F
Weather ElementAverageHighLow
Temperature55.5 °F70 °F (2:53 pm)36 °F (6:53 am)
Dewpoint35.2 °F39.9 °F (8:53 am)30 °F (2:53 pm)
Humidity52.1 %86 % (3:53 am)23 % (2:53 pm)
Barometer30.26 in30.36 in (1:53 am)30.11 in (11:53 pm)
Wind Speed4.6 mph11.5 mph (2:53 pm)
Wind Gust17.3 mph (3:53 pm)
Weather ElementAverage
Visibility9 mi
Wind DirectionENE (81.7 °)

Weather ElementTotal
Precipitation---
Heating Degree Days12 (Base 65)
Growing Degree Days3 (Base 50)
Averaged from 23 records on April 27, 2013
WEATHER CONDITIONS BREAKOUT
WIND DIRECTION BREAKOUT
WEATHER BY HOUR - APRIL 27, 2013
[ °C ]   °F
Local TimeTemperatureDewpointHumidityBarometerVisibilityWind DirectionWind SpeedGust SpeedPrecipitationEventsConditions
1:53 AM43.0 °F35.1 °F74 %30.36 in10.0 miCalmClear
2:53 AM37.9 °F33.1 °F83 %30.36 in8.0 miCalmClear
3:53 AM37.0 °F33.1 °F86 %30.35 in6.0 miCalmClear
4:53 AM37.9 °F34.0 °F86 %30.35 in3.0 miCalmClear
5:53 AM37.9 °F33.1 °F83 %30.34 in10.0 miCalmClear
6:53 AM36.0 °F32.0 °F86 %30.33 in3.0 miCalmClear
7:53 AM42.1 °F37.0 °F82 %30.35 in10.0 miCalmClear
8:53 AM51.1 °F39.9 °F66 %30.36 in8.0 miCalmClear
9:53 AM57.9 °F37.9 °F47 %30.33 in10.0 miSouth (180°)4.6 mphClear
10:53 AM63.0 °F35.1 °F35 %30.32 in10.0 miSSE (160°)9.2 mphClear
11:53 AM64.9 °F35.1 °F33 %30.30 in10.0 miSSE (150°)9.2 mphClear
12:53 PM66.9 °F33.1 °F28 %30.28 in10.0 miVariable3.5 mphClear
1:53 PM69.1 °F32.0 °F25 %30.26 in10.0 miSouth (180°)8.1 mphClear
2:53 PM70.0 °F30.0 °F23 %30.25 in10.0 miSSE (160°)11.5 mphClear
3:53 PM70.0 °F33.1 °F26 %30.23 in10.0 miSouth (170°)9.2 mph17.3 mphClear
4:53 PM70.0 °F37.0 °F30 %30.20 in10.0 miSE (140°)9.2 mphClear
5:53 PM69.1 °F36.0 °F30 %30.19 in10.0 miSSE (150°)8.1 mphClear
6:53 PM68.0 °F36.0 °F31 %30.17 in10.0 miSE (140°)9.2 mphClear
7:53 PM64.0 °F37.0 °F37 %30.15 in10.0 miSE (130°)8.1 mphClear
8:53 PM59.0 °F37.0 °F44 %30.14 in10.0 miSSE (150°)5.8 mphClear
9:53 PM55.0 °F39.0 °F55 %30.15 in10.0 miSSE (150°)5.8 mphClear
10:53 PM54.0 °F37.9 °F55 %30.14 in10.0 miCalmClear
11:53 PM52.0 °F35.1 °F53 %30.11 in10.0 miNNE (20°)3.5 mphClear
Hourly data recorded from KYIP, located miles away from Belleville, Michigan







STORIES FROM OUR PARTNERS